Date String (YYYY-MM-DD hh:mm:ss) UTC,Instrument flags,Ambient pressure (hPa),Sample flow (lpm),Bypass flow (lpm),Sample temperature (°C),Ambient temperature (°C),ASC tube jacket temperature (°C),LED temperature (°C),Box temperature (°C),Sample RH (%),Span deviation,Mass concentration (μg/m³),Mass concentration (μg/m³),Mass concentration (μg/m³)
DateTimeUTC,F1_M11,P_M11,Q1_M11,Q2_M11,T1_M11,T2_M11,T3_M11,T4_M11,T5_M11,U1_M11,ZSPAN_M11,X0_M11,X2_M11,X1_M11
2021-11-03 01:00:00,,0830.9,4.98,0.00,25.1,24.3,00.0,34.1,27.0,22.8,-000.9,0016.11,0012.76,0012.21
2021-11-03 01:01:00,,0830.9,5.01,0.00,25.1,24.3,00.0,34.1,27.0,22.8,-000.9,0015.97,0012.71,0012.17
2021-11-03 01:02:00,,0830.9,5.01,0.00,25.1,24.3,00.0,34.1,27.0,22.8,-000.8,0015.93,0012.69,0012.14
2021-11-03 01:03:00,,0830.9,4.99,0.00,25.1,24.3,00.0,34.1,27.0,22.7,-000.8,0015.90,0012.66,0012.09
2021-11-03 01:04:00,,0830.9,5.01,0.00,25.1,24.3,00.0,34.1,27.0,22.7,-000.9,0015.90,0012.64,0012.04
2021-11-03 01:05:00,,0830.9,4.99,0.00,25.1,24.3,00.0,34.1,27.0,22.7,-001.2,0015.91,0012.62,0012.00
2021-11-03 01:06:00,,0830.9,5.00,0.00,25.1,24.3,00.0,34.1,27.0,22.7,-001.1,0015.85,0012.59,0012.00
2021-11-03 01:07:00,,0830.9,5.01,0.00,25.1,24.3,00.0,34.1,27.0,22.7,-001.2,0016.27,0012.59,0012.00
2021-11-03 01:08:00,,0830.9,5.01,0.00,25.1,24.3,00.0,34.1,27.0,22.7,-001.2,0016.32,0012.61,0011.99
2021-11-03 01:09:00,,0830.9,4.99,0.00,25.2,24.3,00.0,34.1,27.0,22.7,-001.2,0015.86,0012.61,0011.98
2021-11-03 01:10:00,,0830.9,5.01,0.00,25.2,24.4,00.0,34.1,27.0,22.7,-001.1,0015.86,0012.63,0011.99
2021-11-03 01:11:00,,0830.9,5.00,0.00,25.2,24.4,00.0,34.1,27.0,22.8,-001.2,0015.89,0012.65,0011.99
2021-11-03 01:12:00,,0830.9,4.99,0.00,25.2,24.3,00.0,34.1,27.0,22.8,-001.5,0015.89,0012.65,0011.99
2021-11-03 01:13:00,,0830.9,5.01,0.00,25.2,24.4,00.0,34.1,27.0,22.8,-001.7,0016.22,0012.67,0012.00
2021-11-03 01:14:00,,0830.9,5.00,0.00,25.2,24.4,00.0,34.2,27.1,22.8,-001.7,0016.47,0012.72,0012.02
2021-11-03 01:15:00,,0830.9,4.99,0.00,25.2,24.4,00.0,34.2,27.1,22.8,-001.6,0016.48,0012.72,0012.03
2021-11-03 01:16:00,,0830.9,5.01,0.00,25.2,24.4,00.0,34.2,27.1,22.9,-001.2,0016.55,0012.76,0012.05
2021-11-03 01:17:00,,0830.9,4.99,0.00,25.2,24.4,00.0,34.2,27.0,24.2,-001.4,0016.67,0012.79,0012.05
2021-11-03 01:18:00,,0830.9,5.01,0.00,25.2,24.3,00.0,34.2,27.0,23.8,-001.3,0016.84,0012.80,0012.04
2021-11-03 01:19:00,,0830.9,4.99,0.00,25.2,24.3,00.0,34.2,27.0,23.2,-001.4,0016.85,0012.81,0012.03
2021-11-03 01:20:00,,0830.9,5.00,0.00,25.2,24.3,00.0,34.2,27.0,23.1,-001.5,0016.76,0012.77,0012.02
2021-11-03 01:21:00,,0831.0,5.00,0.00,25.2,24.3,00.0,34.2,27.0,23.1,-001.8,0016.66,0012.72,0012.02
2021-11-03 01:22:00,,0831.1,5.01,0.00,25.2,24.4,00.0,34.2,27.0,23.0,-001.8,0016.99,0012.68,0012.01
2021-11-03 01:23:00,,0831.1,5.01,0.00,25.2,24.3,00.0,34.2,27.0,23.1,-001.7,0017.73,0012.69,0012.00
2021-11-03 01:24:00,,0831.1,5.00,0.00,25.2,24.3,00.0,34.2,27.0,23.1,-001.7,0017.41,0012.67,0011.99
2021-11-03 01:25:00,,0831.0,5.01,0.00,25.2,24.3,00.0,34.2,27.0,23.0,-001.8,0017.16,0012.61,0011.97
2021-11-03 01:26:00,,0831.0,4.99,0.00,25.2,24.3,00.0,34.2,27.0,23.0,-002.1,0017.34,0012.60,0011.98
2021-11-03 01:27:00,,0831.0,5.00,0.00,25.2,24.3,00.0,34.2,27.0,23.0,-002.2,0017.69,0012.59,0012.00
2021-11-03 01:28:00,,0831.1,5.01,0.00,25.2,24.3,00.0,34.2,27.0,23.0,-002.1,0017.70,0012.58,0012.02
2021-11-03 01:29:00,,0831.1,5.01,0.00,25.2,24.3,00.0,34.2,27.0,23.1,-002.2,0017.29,0012.60,0012.06
2021-11-03 01:30:00,,0831.1,5.00,0.00,25.2,24.3,00.0,34.2,27.0,23.1,-002.2,0017.16,0012.63,0012.11
2021-11-03 01:31:00,,0831.1,5.00,0.00,25.2,24.3,00.0,34.2,27.0,23.1,-002.2,0017.12,0012.66,0012.14
2021-11-03 01:32:00,,0831.1,5.00,0.00,25.2,24.3,00.0,34.2,27.0,23.1,-002.0,0017.54,0012.70,0012.17
2021-11-03 01:33:00,,0831.1,5.00,0.00,25.2,24.3,00.0,34.2,27.0,23.1,-001.9,0017.52,0012.72,0012.20
2021-11-03 01:34:00,,0831.1,5.00,0.00,25.2,24.3,00.0,34.2,27.0,23.1,-001.8,0016.52,0012.76,0012.24
2021-11-03 01:35:00,,0831.1,5.00,0.00,25.2,24.3,00.0,34.2,27.0,23.0,-001.9,0016.69,0012.80,0012.29
2021-11-03 01:36:00,,0831.0,5.01,0.00,25.2,24.3,00.0,34.2,27.0,23.0,-001.9,0016.82,0012.86,0012.34
2021-11-03 01:37:00,,0831.0,4.99,0.00,25.2,24.3,00.0,34.2,27.0,22.9,-001.6,0016.86,0012.87,0012.37
2021-11-03 01:38:00,,0831.0,5.00,0.00,25.2,24.3,00.0,34.2,27.0,22.8,-001.5,0016.32,0012.88,0012.38
2021-11-03 01:39:00,,0831.0,5.02,0.00,25.1,24.3,00.0,34.2,27.0,22.7,-001.6,0016.26,0012.90,0012.39
2021-11-03 01:40:00,,0831.1,5.00,0.00,25.1,24.3,00.0,34.2,27.0,22.6,-001.5,0016.35,0012.94,0012.40
2021-11-03 01:41:00,,0831.1,5.00,0.00,25.1,24.3,00.0,34.2,27.0,22.6,-001.4,0016.29,0012.94,0012.39
2021-11-03 01:42:00,,0831.1,5.01,0.00,25.1,24.3,00.0,34.2,27.0,22.6,-001.4,0016.18,0012.90,0012.38
2021-11-03 01:43:00,,0831.0,5.00,0.00,25.1,24.3,00.0,34.2,27.0,22.7,-001.3,0015.85,0012.92,0012.39
2021-11-03 01:44:00,,0831.0,5.00,0.00,25.1,24.3,00.0,34.2,27.0,22.7,-001.4,0015.79,0012.92,0012.39
2021-11-03 01:45:00,,0831.0,5.01,0.00,25.1,24.3,00.0,34.2,26.9,22.8,-001.1,0015.81,0012.95,0012.39
2021-11-03 01:46:00,,0831.0,5.00,0.00,25.1,24.3,00.0,34.2,26.9,22.8,-001.0,0015.61,0012.94,0012.39
2021-11-03 01:47:00,,0831.0,4.99,0.00,25.1,24.3,00.0,34.2,26.9,22.8,-001.0,0015.64,0012.94,0012.40
2021-11-03 01:48:00,,0831.0,5.01,0.00,25.1,24.3,00.0,34.1,26.9,22.8,-001.3,0015.76,0012.96,0012.39
2021-11-03 01:49:00,,0831.0,5.00,0.00,25.1,24.3,00.0,34.1,26.9,22.8,-001.3,0015.67,0012.94,0012.37
2021-11-03 01:50:00,,0831.0,4.99,0.00,25.1,24.3,00.0,34.1,26.9,22.8,-001.4,0015.58,0012.91,0012.35
2021-11-03 01:51:00,,0831.0,4.99,0.00,25.1,24.3,00.0,34.1,26.9,22.8,-001.4,0015.57,0012.90,0012.35
2021-11-03 01:52:00,,0831.1,5.01,0.00,25.1,24.2,00.0,34.1,26.9,22.8,-001.6,0015.66,0012.89,0012.35
2021-11-03 01:53:00,,0831.0,5.00,0.00,25.1,24.2,00.0,34.1,26.9,22.9,-001.6,0015.83,0012.95,0012.37
2021-11-03 01:54:00,,0831.0,4.98,0.00,25.1,24.2,00.0,34.1,26.9,22.9,-001.8,0015.75,0012.91,0012.36
2021-11-03 01:55:00,,0830.9,5.00,0.00,25.1,24.2,00.0,34.1,26.9,22.9,-001.9,0015.81,0012.94,0012.37
2021-11-03 01:56:00,,0830.9,5.00,0.00,25.1,24.2,00.0,34.1,26.8,22.8,-002.2,0016.36,0012.94,0012.38
2021-11-03 01:57:00,,0830.9,4.99,0.00,25.1,24.2,00.0,34.1,26.8,22.8,-002.3,0016.37,0012.88,0012.33
2021-11-03 01:58:00,,0830.9,5.00,0.00,25.0,24.2,00.0,34.1,26.8,22.8,-002.2,0016.31,0012.84,0012.27
2021-11-03 01:59:00,,0830.9,5.00,0.00,25.0,24.1,00.0,34.1,26.8,22.8,-002.0,0016.24,0012.78,0012.22
